[[{"header":{"parameterUnit":"m.s-1","parameterCategory":2,"la1":30.2991,"la2":30.254,"lo1":-89.0895,"lo2":-89.0444,"dy":0.0017,"dx":0.0017,"nx":28,"ny":28,"refTime":"2025-11-09T09:00:00:Z","depth":"0","parameterNumber":2,"parameterNumberName":"U-component_of_CURRENTS"},"data":[0,0,0,0,0,0,0,0,0,0,0,0,0,0,0,0,0,0,0,0,0,0,0,0,0,0,0,0,0,0,0,0,0,0,0,0,0,0,0,0,0,0,0,0,0,0,0,0,0,0,0,0,0,0,0,0,0,0,0.3997,0.4,0,0.4121,0.4122,0.4123,0.415,0.415,0.415,0.415,0.4185,0.4186,0.4187,0,0,0,0,0,0,0,0,0,0,0,0,0,0.3938,0.3938,0.3997,0.4,0.4002,0.4121,0.4122,0.4123,0.415,0.415,0.415,0.415,0.4185,0.4186,0.4187,0,0,0,0,0,0,0,0,0,0,0,0,0,0.3993,0.3937,0.3997,0.4037,0.4043,0.4121,0.4122,0.4123,0.415,0.415,0.415,0.415,0.4185,0.4186,0.4187,0.4196,0,0,0.4192,0.4192,0,0,0,0,0,0,0,0,0.399,0.3994,0.4029,0.4035,0.4041,0.4129,0.4115,0.4146,0.415,0.4099,0.415,0.415,0.4165,0.4168,0.4178,0.4197,0.4199,0.4192,0.4193,0.4193,0.4194,0,0,0,0,0,0,0,0.3986,0.399,0.4036,0.4032,0.4039,0.4103,0.4108,0.4122,0.4121,0.4103,0.4108,0.4137,0.4166,0.4177,0.4179,0.4199,0.4192,0.4193,0.4194,0.4194,0.4224,0.4224,0,0,0,0,0,0,0.3982,0.3985,0.4033,0.4041,0.4026,0.4104,0.411,0.4092,0.4123,0.4131,0.4137,0.4138,0.4174,0.4177,0.418,0.4247,0.4193,0.4194,0.4195,0.4224,0.4224,0.4224,0,0,0,0,0,0,0.398,0.3983,0.4028,0.4027,0.4039,0.4105,0.4086,0.4095,0.4104,0.4152,0.4156,0.4137,0.4174,0.4178,0.4184,0.4247,0.4195,0.4196,0.4224,0.4224,0.4224,0.4345,0,0,0,0,0,0,0.3976,0.398,0.3964,0.4025,0.4039,0.4067,0.4087,0.4098,0.4127,0.4129,0.4153,0.4157,0.4175,0.4181,0.4185,0.4248,0.4198,0.4224,0.4224,0.4224,0.4342,0.435,0.4356,0,0,0,0,0,0.3973,0.3969,0.3961,0.3969,0.4013,0.4068,0.4078,0.4122,0.4127,0.4127,0.4141,0.4156,0.4184,0.4182,0.4186,0.4251,0.4224,0.4224,0.4224,0.4338,0.4348,0.4356,0,0,0,0,0,0,0.392,0.3974,0.3967,0.397,0.4007,0.4076,0.411,0.4116,0.4128,0.4135,0.4151,0.4156,0.4188,0.4178,0.4175,0.425,0.4208,0.4209,0.4293,0.4302,0.431,0.4354,0.4199,0,0,0,0,0,0.3902,0.392,0.3963,0.3965,0.3993,0.4039,0.4068,0.4088,0.4119,0.4125,0.4141,0.4158,0.4192,0.421,0.4221,0.4258,0.4281,0.4297,0.4305,0.4311,0.4345,0.4363,0.4378,0.4223,0.4223,0.4223,0,0,0.3888,0.3919,0.3928,0.3958,0.4003,0.4053,0.4055,0.4104,0.4149,0.4127,0.4179,0.4179,0.4199,0.4251,0.4266,0.4255,0.4379,0.4311,0.4318,0.4348,0.4365,0.4381,0.4395,0.4223,0.4223,0.4223,0,0,0.3903,0.3893,0.3928,0.3961,0.4026,0.4063,0.407,0.4124,0.4153,0.4191,0.4198,0.4224,0.426,0.4303,0.4329,0.4372,0.4407,0.4372,0.4471,0.4489,0.4503,0.4516,0.463,0.4652,0.4389,0.4389,0.439,0,0.388,0.3911,0.3945,0.3993,0.4032,0.4066,0.4109,0.4159,0.4198,0.4239,0.4217,0.4286,0.4301,0.4392,0.443,0.4401,0.4439,0.4449,0.4505,0.4517,0.4528,0.4641,0.4664,0.4395,0.4395,0.4394,0.4393,0,0.3941,0.3952,0.3986,0.4052,0.4091,0.4134,0.4208,0.4245,0.428,0.4333,0.44,0.4405,0.4445,0.4466,0.4487,0.4579,0.4596,0.4507,0.4498,0.4552,0.4667,0.4689,0.4404,0.4401,0.44,0.4398,0,0,0.3922,0.4005,0.4011,0.4045,0.4118,0.4164,0.4253,0.4348,0.4424,0.4461,0.4544,0.4618,0.461,0.4635,0.4633,0.4686,0.4831,0.4659,0.4657,0.4804,0.4956,0.4977,0.5002,0.4748,0.4751,0.4753,0.5031,0,0.3952,0.4028,0.4063,0.4139,0.4193,0.4243,0.4323,0.4415,0.4491,0.4581,0.4631,0.4699,0.4679,0.4698,0.4747,0.4793,0.4882,0.477,0.4854,0.486,0.4894,0.5024,0.4815,0.5043,0.5052,0.5055,0.5058,0,0.4026,0.4052,0.4123,0.4192,0.422,0.4267,0.4396,0.447,0.4619,0.4673,0.4746,0.4782,0.4898,0.4825,0.4977,0.4906,0.4965,0.5002,0.5009,0.5001,0.4917,0.4971,0.5081,0.4947,0.5091,0.5088,0.5086,0,0.4064,0.411,0.4162,0.4187,0.4272,0.4313,0.436,0.4502,0.459,0.4729,0.4805,0.4899,0.4967,0.5016,0.5134,0.5056,0.5308,0.5176,0.5269,0.5274,0.5101,0.5085,0.511,0.5291,0.529,0.5289,0.5289,0,0.4133,0.4187,0.4173,0.4217,0.4284,0.4323,0.4431,0.4513,0.4621,0.4742,0.4835,0.4935,0.5016,0.5166,0.5208,0.5359,0.5362,0.5356,0.5348,0.5143,0.5128,0.5003,0.4944,0.53,0.5297,0.5295,0.5294,0,0.4268,0.4247,0.432,0.4331,0.4329,0.4399,0.4463,0.4556,0.464,0.4787,0.4835,0.5024,0.5227,0.5357,0.5505,0.5486,0.5455,0.5637,0.5461,0.5427,0.5315,0.5271,0.5162,0.5015,0.5764,0.5766,0.5768,0,0.4375,0.4405,0.4408,0.4428,0.4443,0.4494,0.4543,0.4586,0.4664,0.4838,0.4918,0.5167,0.5348,0.5634,0.5665,0.5807,0.5597,0.5672,0.5454,0.5356,0.5299,0.5065,0.4928,0.531,0.5308,0.5306,0.5305,0,0.4541,0.4528,0.4557,0.4578,0.4602,0.464,0.4674,0.4719,0.4783,0.4882,0.5029,0.5176,0.5465,0.5526,0.574,0.5756,0.5391,0.5643,0.553,0.4981,0.473,0.4567,0.5163,0.529,0.5292,0.5293,0.5293,0.5294,0.4646,0.469,0.4671,0.4714,0.4736,0.4751,0.4725,0.4758,0.4822,0.485,0.5037,0.5122,0.5289,0.5554,0.5567,0.5427,0.5368,0.5221,0.5205,0.5,0.4742,0.5389,0.5489,0.5491,0.5493,0.5495,0.5497,0,0.4713,0.473,0.4789,0.4777,0.4796,0.4787,0.4777,0.4684,0.4669,0.4767,0.4825,0.4908,0.5033,0.5119,0.5126,0.4971,0.4694,0.4845,0.4414,0.432,0.4896,0.4757,0.471,0.471,0.471,0.471,0.471,0.471,0.4733,0.4767,0.4785,0.4787,0.4779,0.4662,0.4609,0.4467,0.4438,0.4347,0.4301,0.4379,0.4643,0.4848,0.4736,0.4615,0.4238,0.4093,0.4091,0.4462,0.4491,0.4518,0.437,0.4243,0.4242,0.3265,0.3258,0.3253]},{"header":{"parameterUnit":"m.s-1","parameterCategory":2,"la1":30.2991,"la2":30.254,"lo1":-89.0895,"lo2":-89.0444,"dy":0.0017,"dx":0.0017,"nx":28,"ny":28,"refTime":"2025-11-09T09:00:00:Z","depth":"0","parameterNumber":3,"parameterNumberName":"V-component_of_CURRENTS"},"data":[0,0,0,0,0,0,0,0,0,0,0,0,0,0,0,0,0,0,0,0,0,0,0,0,0,0,0,0,0,0,0,0,0,0,0,0,0,0,0,0,0,0,0,0,0,0,0,0,0,0,0,0,0,0,0,0,0,0,-0.0586,-0.0587,0,-0.067,-0.067,-0.0671,-0.0737,-0.0738,-0.0739,-0.0739,-0.0852,-0.0855,-0.0857,0,0,0,0,0,0,0,0,0,0,0,0,0,-0.0684,-0.068,-0.0586,-0.0587,-0.0588,-0.0669,-0.067,-0.0672,-0.0737,-0.0738,-0.0739,-0.074,-0.0852,-0.0854,-0.0857,0,0,0,0,0,0,0,0,0,0,0,0,0,-0.0691,-0.0679,-0.0585,-0.0631,-0.0636,-0.0669,-0.0671,-0.0672,-0.0737,-0.0738,-0.0739,-0.074,-0.0851,-0.0854,-0.0858,-0.0859,0,0,-0.0869,-0.087,0,0,0,0,0,0,0,0,-0.069,-0.0687,-0.0623,-0.0628,-0.0633,-0.0694,-0.0747,-0.0736,-0.0737,-0.0698,-0.0739,-0.074,-0.0802,-0.0809,-0.0822,-0.0864,-0.0869,-0.0869,-0.0871,-0.0873,-0.0874,0,0,0,0,0,0,0,-0.0689,-0.0685,-0.0618,-0.0624,-0.063,-0.0716,-0.0716,-0.0746,-0.0743,-0.0701,-0.0707,-0.0716,-0.0805,-0.0818,-0.0825,-0.0871,-0.0869,-0.0872,-0.0874,-0.0876,-0.0944,-0.0944,0,0,0,0,0,0,-0.0667,-0.0682,-0.0616,-0.0621,-0.0665,-0.0713,-0.0713,-0.0673,-0.0743,-0.0754,-0.0715,-0.0719,-0.0812,-0.0821,-0.0829,-0.0893,-0.0873,-0.0876,-0.0878,-0.0945,-0.0944,-0.0944,0,0,0,0,0,0,-0.0668,-0.0658,-0.0612,-0.0658,-0.0658,-0.0708,-0.0665,-0.0674,-0.0684,-0.0753,-0.0765,-0.0714,-0.0813,-0.0824,-0.0854,-0.0896,-0.0878,-0.0881,-0.0945,-0.0945,-0.0944,-0.0983,0,0,0,0,0,0,-0.0669,-0.0657,-0.0619,-0.0654,-0.0655,-0.0621,-0.0664,-0.0675,-0.0689,-0.0694,-0.0756,-0.0768,-0.0815,-0.0848,-0.0857,-0.09,-0.0884,-0.0946,-0.0945,-0.0944,-0.0982,-0.0984,-0.0986,0,0,0,0,0,-0.0672,-0.0624,-0.0615,-0.0608,-0.0599,-0.062,-0.0628,-0.067,-0.0687,-0.0683,-0.073,-0.0766,-0.0852,-0.085,-0.0862,-0.0907,-0.0946,-0.0945,-0.0944,-0.0982,-0.0984,-0.0986,0,0,0,0,0,0,-0.0619,-0.0627,-0.0618,-0.0563,-0.0582,-0.0631,-0.064,-0.0657,-0.0689,-0.07,-0.0758,-0.0773,-0.0816,-0.0835,-0.0833,-0.0918,-0.0906,-0.0907,-0.093,-0.0933,-0.0934,-0.0908,-0.0886,0,0,0,0,0,-0.0591,-0.0573,-0.0582,-0.0538,-0.0548,-0.0586,-0.0599,-0.0622,-0.0659,-0.0674,-0.072,-0.0768,-0.0821,-0.0853,-0.0887,-0.093,-0.0897,-0.0962,-0.0964,-0.0966,-0.0948,-0.0924,-0.0922,-0.0942,-0.0942,-0.0942,0,0,-0.0561,-0.056,-0.0548,-0.053,-0.0555,-0.0567,-0.0597,-0.0612,-0.0642,-0.0681,-0.0731,-0.0767,-0.0825,-0.0884,-0.0906,-0.0911,-0.0939,-0.0965,-0.0967,-0.0947,-0.0923,-0.0921,-0.092,-0.0941,-0.0941,-0.0942,0,0,-0.0519,-0.0488,-0.0474,-0.049,-0.0516,-0.0545,-0.0541,-0.0582,-0.0623,-0.0661,-0.071,-0.0751,-0.0826,-0.0883,-0.0923,-0.094,-0.0938,-0.0964,-0.0975,-0.0954,-0.0952,-0.0951,-0.0895,-0.0887,-0.098,-0.098,-0.0981,0,-0.0477,-0.044,-0.0473,-0.0473,-0.048,-0.053,-0.0518,-0.0579,-0.0626,-0.0651,-0.0677,-0.0764,-0.0827,-0.0897,-0.0935,-0.0949,-0.0919,-0.0976,-0.0957,-0.0955,-0.0952,-0.0895,-0.0887,-0.0982,-0.0982,-0.0982,-0.0982,0,-0.0452,-0.0412,-0.0411,-0.0425,-0.044,-0.0438,-0.0512,-0.0541,-0.0591,-0.0645,-0.0703,-0.0775,-0.0817,-0.0872,-0.0933,-0.0962,-0.0938,-0.0954,-0.0956,-0.0953,-0.0892,-0.0883,-0.0985,-0.0984,-0.0984,-0.0983,0,0,-0.0369,-0.0383,-0.0378,-0.0357,-0.0405,-0.0406,-0.047,-0.0518,-0.0531,-0.0626,-0.0632,-0.0782,-0.0803,-0.0844,-0.0911,-0.0937,-0.0926,-0.0957,-0.0955,-0.0905,-0.0848,-0.0769,-0.075,-0.0946,-0.0945,-0.0944,-0.0809,0,-0.0323,-0.0287,-0.0322,-0.0289,-0.0269,-0.0333,-0.0367,-0.0432,-0.0502,-0.053,-0.0647,-0.0676,-0.0806,-0.0805,-0.0867,-0.0894,-0.0904,-0.0958,-0.0853,-0.0848,-0.0783,-0.0738,-0.0733,-0.0608,-0.08,-0.0798,-0.0797,0,-0.0288,-0.0258,-0.021,-0.018,-0.0178,-0.0179,-0.0202,-0.0238,-0.0334,-0.0379,-0.0457,-0.0534,-0.0617,-0.0692,-0.0759,-0.0787,-0.082,-0.0848,-0.0843,-0.0744,-0.0751,-0.0643,-0.0583,-0.084,-0.0782,-0.0783,-0.0785,0,-0.0217,-0.0175,-0.0122,-0.0122,-0.0118,-0.0107,-0.0105,-0.018,-0.0181,-0.0258,-0.0227,-0.0374,-0.0355,-0.0473,-0.0579,-0.0662,-0.0588,-0.0694,-0.0643,-0.0636,-0.0594,-0.0585,-0.077,-0.0697,-0.0697,-0.0698,-0.0698,0,-0.0156,-0.0108,-0.0074,-0.0051,0.0027,0.0,0.0054,0.0017,0.0015,0.0067,-0.0117,-0.0057,-0.0296,-0.0315,-0.0474,-0.0492,-0.0494,-0.0609,-0.0591,-0.0604,-0.0598,-0.0788,-0.0943,-0.0693,-0.0694,-0.0695,-0.0696,0,-0.0096,-0.0082,-0.0014,0.0032,0.0058,0.0113,0.0184,0.0218,0.0221,0.0305,0.0307,0.0225,0.0217,0.002,-0.0088,-0.0269,-0.0461,-0.0341,-0.0322,-0.0306,-0.0565,-0.072,-0.0805,-0.0919,-0.0301,-0.0298,-0.0296,0,-0.006,-0.0017,0.0056,0.0104,0.013,0.0217,0.0274,0.0303,0.0363,0.0502,0.0569,0.0604,0.0664,0.054,0.0235,0.0043,-0.025,-0.0112,-0.0299,-0.0546,-0.0708,-0.0841,-0.0945,-0.0256,-0.0253,-0.0251,-0.0249,0,0.0022,0.0035,0.0089,0.0186,0.0259,0.0355,0.0462,0.0557,0.0641,0.0799,0.1026,0.1126,0.1019,0.0848,0.0561,0.0349,-0.032,-0.0074,-0.0353,-0.0689,-0.0822,-0.0933,-0.0365,-0.0231,-0.0233,-0.0234,-0.0235,-0.0236,0.0084,0.0129,0.0186,0.0276,0.0365,0.0491,0.0618,0.0788,0.101,0.1332,0.1394,0.169,0.1342,0.0963,0.0617,-0.0064,-0.0114,-0.0327,-0.0487,-0.0591,-0.0744,-0.0102,0.0057,0.0057,0.0057,0.0057,0.0057,0,0.0154,0.0192,0.0278,0.0381,0.0488,0.0523,0.074,0.0937,0.1281,0.1651,0.1954,0.2035,0.156,0.0982,0.0092,-0.0409,-0.0691,-0.0717,-0.0984,-0.1069,-0.0506,-0.0552,-0.049,-0.049,-0.0489,-0.0489,-0.0489,-0.0488,0.0192,0.0263,0.0292,0.0463,0.0553,0.0774,0.0923,0.1276,0.1607,0.2159,0.2459,0.2629,0.2187,0.0492,-0.0662,-0.0944,-0.1394,-0.1424,-0.1633,-0.1357,-0.1337,-0.1318,-0.1402,-0.1519,-0.1521,-0.2171,-0.2178,-0.2183]}],[{"header":{"parameterUnit":"m.s-1","parameterCategory":2,"la1":30.2991,"la2":30.254,"lo1":-89.0895,"lo2":-89.0444,"dy":0.0017,"dx":0.0017,"nx":28,"ny":28,"refTime":"2025-11-09T09:00:00:Z","depth":"2","parameterNumber":2,"parameterNumberName":"U-component_of_CURRENTS"},"data":[0,0,0,0,0,0,0,0,0,0,0,0,0,0,0,0,0,0,0,0,0,0,0,0,0,0,0,0,0,0,0,0,0,0,0,0,0,0,0,0,0,0,0,0,0,0,0,0,0,0,0,0,0,0,0,0,0,0,0.2709,0.271,0,0.2823,0.2824,0.2825,0.2863,0.2863,0.2863,0.2863,0.2922,0.2923,0.2925,0,0,0,0,0,0,0,0,0,0,0,0,0,0.256,0.2562,0.2709,0.271,0.2712,0.2823,0.2824,0.2825,0.2863,0.2863,0.2863,0.2863,0.2921,0.2923,0.2925,0,0,0,0,0,0,0,0,0,0,0,0,0,0.264,0.2563,0.2708,0.2748,0.2753,0.2823,0.2824,0.2825,0.2863,0.2863,0.2863,0.2863,0.2921,0.2923,0.2925,0.2941,0,0,0.2933,0.2934,0,0,0,0,0,0,0,0,0.2635,0.2645,0.2741,0.2746,0.2751,0.2833,0.2794,0.2863,0.2863,0.2817,0.2863,0.2863,0.289,0.2895,0.2911,0.2944,0.2947,0.2933,0.2934,0.2935,0.2936,0,0,0,0,0,0,0,0.263,0.264,0.2749,0.2743,0.2749,0.2773,0.2784,0.2807,0.2848,0.2821,0.2825,0.2845,0.2892,0.2908,0.2912,0.2948,0.2933,0.2935,0.2937,0.2937,0.3023,0.3024,0,0,0,0,0,0,0.2624,0.2635,0.2746,0.2753,0.2697,0.2776,0.2788,0.2803,0.2849,0.2858,0.2845,0.2847,0.2904,0.2909,0.2914,0.2978,0.2935,0.2938,0.2939,0.3023,0.3024,0.3024,0,0,0,0,0,0,0.262,0.2632,0.2741,0.27,0.2717,0.2779,0.2796,0.2805,0.2854,0.2869,0.2875,0.2888,0.2904,0.2911,0.2935,0.2978,0.2939,0.2941,0.3022,0.3023,0.3024,0.3077,0,0,0,0,0,0,0.2615,0.263,0.2657,0.27,0.2719,0.2792,0.2797,0.2808,0.2867,0.2871,0.2907,0.2911,0.2905,0.2931,0.2937,0.2981,0.2943,0.302,0.3022,0.3024,0.3074,0.308,0.3085,0,0,0,0,0,0.2609,0.2646,0.2658,0.2673,0.2748,0.2793,0.2805,0.2845,0.2869,0.2889,0.2902,0.2911,0.2946,0.2933,0.294,0.2986,0.302,0.3022,0.3023,0.3072,0.3079,0.3084,0,0,0,0,0,0,0.2607,0.2655,0.2668,0.2721,0.2758,0.2801,0.2838,0.2868,0.29,0.2905,0.2918,0.2921,0.2962,0.2961,0.2947,0.3013,0.2988,0.2991,0.3022,0.3029,0.3034,0.3065,0.2945,0,0,0,0,0,0.2616,0.2651,0.2693,0.2738,0.2756,0.2804,0.2838,0.2859,0.2889,0.2906,0.2922,0.2942,0.2973,0.2989,0.3002,0.3038,0.3072,0.3072,0.3077,0.3082,0.3111,0.3198,0.3215,0.3031,0.3031,0.3031,0,0,0.2625,0.2663,0.2681,0.274,0.2772,0.2813,0.2823,0.2873,0.2902,0.2905,0.2944,0.2963,0.2985,0.3018,0.3038,0.3026,0.3146,0.3084,0.3088,0.3116,0.3202,0.3221,0.3237,0.3032,0.3032,0.3032,0,0,0.2657,0.2692,0.2727,0.2762,0.2818,0.284,0.2862,0.2905,0.2916,0.296,0.2966,0.3007,0.305,0.3065,0.3086,0.3131,0.3171,0.3143,0.3202,0.3286,0.3303,0.3318,0.3363,0.3382,0.3147,0.3147,0.3147,0,0.2668,0.272,0.2745,0.2793,0.2825,0.2858,0.2895,0.2919,0.296,0.2987,0.2977,0.3079,0.3078,0.3153,0.316,0.3149,0.3197,0.3176,0.3296,0.3312,0.3327,0.337,0.339,0.3149,0.3149,0.3149,0.3149,0,0.2718,0.277,0.2796,0.2858,0.2889,0.2929,0.2954,0.2987,0.3017,0.3056,0.3131,0.3135,0.3207,0.3209,0.3203,0.3309,0.3308,0.3294,0.3286,0.335,0.3389,0.341,0.3153,0.3152,0.3152,0.3151,0,0,0.271,0.2808,0.2821,0.2861,0.2923,0.2955,0.2997,0.3056,0.3117,0.3159,0.3245,0.3288,0.3323,0.3347,0.3345,0.3407,0.3524,0.3405,0.3408,0.346,0.3709,0.3655,0.3671,0.3551,0.3556,0.3559,0.3687,0,0.274,0.2827,0.2865,0.2947,0.2986,0.3026,0.3077,0.3137,0.3175,0.3258,0.3307,0.3384,0.3365,0.3406,0.3474,0.3537,0.3586,0.349,0.3631,0.3635,0.359,0.3696,0.3412,0.35,0.3707,0.371,0.3712,0,0.277,0.2828,0.29,0.2999,0.3022,0.3077,0.3162,0.3213,0.3324,0.3375,0.3473,0.3501,0.362,0.3566,0.3742,0.3697,0.3709,0.3732,0.3738,0.3693,0.3621,0.3473,0.3529,0.3747,0.3744,0.3741,0.3739,0,0.2736,0.2851,0.2907,0.2941,0.3057,0.3101,0.3164,0.326,0.3324,0.345,0.3548,0.3661,0.3761,0.3828,0.3889,0.3836,0.4069,0.3988,0.3936,0.393,0.3719,0.3688,0.4077,0.4077,0.4077,0.4077,0.4076,0,0.2742,0.2795,0.291,0.2945,0.3027,0.3112,0.321,0.3284,0.3429,0.3537,0.3621,0.3718,0.3843,0.3963,0.3968,0.4065,0.4144,0.3988,0.3985,0.3723,0.3693,0.3926,0.3907,0.4081,0.408,0.4079,0.4079,0,0.2686,0.2772,0.2841,0.2967,0.301,0.3067,0.3228,0.3296,0.3475,0.3614,0.367,0.3844,0.4013,0.4107,0.4228,0.4187,0.4243,0.4221,0.3896,0.3853,0.401,0.3992,0.4183,0.4183,0.4182,0.4182,0.4182,0,0.2635,0.2682,0.2816,0.2839,0.2894,0.3008,0.3073,0.3278,0.3358,0.366,0.3716,0.3939,0.4013,0.4226,0.4223,0.4264,0.4289,0.3979,0.3804,0.4056,0.4035,0.4016,0.3999,0.3526,0.352,0.3516,0.3512,0,0.2537,0.2615,0.268,0.274,0.2807,0.2904,0.3026,0.3099,0.3352,0.3496,0.3665,0.3753,0.3989,0.3916,0.4025,0.3983,0.3961,0.3887,0.429,0.3547,0.3449,0.3423,0.3425,0.3472,0.3476,0.3479,0.3481,0.3483,0.2442,0.2456,0.2558,0.2608,0.2697,0.2763,0.2809,0.2943,0.3081,0.3261,0.3446,0.3528,0.3638,0.3647,0.3576,0.3554,0.3782,0.359,0.3599,0.3614,0.3519,0.3427,0.3426,0.3429,0.3432,0.3435,0.3438,0,0.2314,0.2368,0.2387,0.2448,0.2473,0.2611,0.2749,0.276,0.2831,0.3008,0.3131,0.2974,0.2988,0.3116,0.302,0.3029,0.2939,0.2906,0.2757,0.2804,0.2844,0.2702,0.2396,0.2392,0.2388,0.2384,0,0,0.2237,0.2234,0.2245,0.2227,0.227,0.2354,0.2419,0.2439,0.2557,0.2532,0.2586,0.2859,0.3021,0.2653,0.2641,0.2495,0.2605,0.2404,0.3257,0.3129,0.3162,0.3283,0.3125,0,0,0,0,0]},{"header":{"parameterUnit":"m.s-1","parameterCategory":2,"la1":30.2991,"la2":30.254,"lo1":-89.0895,"lo2":-89.0444,"dy":0.0017,"dx":0.0017,"nx":28,"ny":28,"refTime":"2025-11-09T09:00:00:Z","depth":"2","parameterNumber":3,"parameterNumberName":"V-component_of_CURRENTS"},"data":[0,0,0,0,0,0,0,0,0,0,0,0,0,0,0,0,0,0,0,0,0,0,0,0,0,0,0,0,0,0,0,0,0,0,0,0,0,0,0,0,0,0,0,0,0,0,0,0,0,0,0,0,0,0,0,0,0,0,0.0203,0.0202,0,0.0085,0.0084,0.0083,0.0026,0.0026,0.0026,0.0026,-0.0111,-0.0115,-0.0119,0,0,0,0,0,0,0,0,0,0,0,0,0,0.0293,0.0292,0.0203,0.0202,0.02,0.0086,0.0084,0.0082,0.0026,0.0026,0.0026,0.0026,-0.011,-0.0115,-0.0119,0,0,0,0,0,0,0,0,0,0,0,0,0,0.0223,0.0292,0.0204,0.0158,0.0153,0.0086,0.0084,0.0082,0.0026,0.0026,0.0026,0.0026,-0.0109,-0.0114,-0.012,-0.0154,0,0,-0.0136,-0.0139,0,0,0,0,0,0,0,0,0.0227,0.022,0.0166,0.0161,0.0155,0.007,0.0065,0.0002,0.0026,0.0074,0.0026,0.0026,-0.0053,-0.0063,-0.0085,-0.0161,-0.0167,-0.0137,-0.014,-0.0143,-0.0144,0,0,0,0,0,0,0,0.0232,0.0224,0.0157,0.0165,0.0158,0.0114,0.0105,0.0053,0.0012,0.007,0.0065,0.0052,-0.0056,-0.0079,-0.0088,-0.0169,-0.0137,-0.0142,-0.0145,-0.0147,-0.0254,-0.0254,0,0,0,0,0,0,0.0251,0.0229,0.016,0.0153,0.0192,0.0113,0.0103,0.0098,0.0013,-0.0,0.0052,0.005,-0.007,-0.0082,-0.0093,-0.0114,-0.0143,-0.0148,-0.0151,-0.0254,-0.0254,-0.0253,0,0,0,0,0,0,0.0253,0.0246,0.0165,0.0188,0.0174,0.0112,0.0106,0.0095,0.0065,-0.0001,-0.0014,0.0033,-0.007,-0.0086,-0.0123,-0.0121,-0.015,-0.0155,-0.0255,-0.0254,-0.0254,-0.0173,0,0,0,0,0,0,0.0257,0.0248,0.0241,0.0189,0.0174,0.014,0.0106,0.0093,0.0057,0.0053,-0.0022,-0.0034,-0.0071,-0.0114,-0.0128,-0.0129,-0.016,-0.0256,-0.0255,-0.0254,-0.0176,-0.017,-0.0164,0,0,0,0,0,0.026,0.0254,0.0241,0.0232,0.017,0.0141,0.0129,0.0084,0.0056,0.0054,0.0009,-0.0032,-0.0119,-0.0118,-0.0135,-0.0137,-0.0256,-0.0255,-0.0254,-0.0179,-0.0171,-0.0164,0,0,0,0,0,0,0.0277,0.0246,0.0231,0.0212,0.0187,0.0132,0.0123,0.0082,0.0041,0.0034,-0.0029,-0.0044,-0.0077,-0.0117,-0.0115,-0.0164,-0.0194,-0.0196,-0.0131,-0.0124,-0.0118,-0.0094,-0.0164,0,0,0,0,0,0.0282,0.0273,0.024,0.0222,0.0224,0.0171,0.0148,0.0115,0.0074,0.0055,0.001,-0.0041,-0.0087,-0.0111,-0.0153,-0.0184,-0.0216,-0.0196,-0.0189,-0.0184,-0.0175,-0.0226,-0.0224,-0.025,-0.025,-0.025,0,0,0.0279,0.026,0.0252,0.0225,0.0208,0.0209,0.0159,0.0134,0.0137,0.0046,0.0042,-0.0025,-0.009,-0.0116,-0.0135,-0.0149,-0.0188,-0.0183,-0.0177,-0.0171,-0.0225,-0.0223,-0.022,-0.0249,-0.0249,-0.0249,0,0,0.0288,0.0269,0.028,0.0272,0.0249,0.0222,0.0219,0.0177,0.0174,0.0144,0.0087,0.0031,-0.0037,-0.0075,-0.0108,-0.0096,-0.0155,-0.0119,-0.007,-0.012,-0.0118,-0.0117,-0.0129,-0.013,-0.0114,-0.0114,-0.0114,0,0.0289,0.0297,0.0274,0.0292,0.0295,0.0238,0.026,0.0245,0.0191,0.0195,0.0159,0.0041,-0.0013,-0.0056,-0.0049,-0.0082,-0.0112,-0.0092,-0.0112,-0.0111,-0.0112,-0.0125,-0.0127,-0.011,-0.011,-0.0111,-0.0111,0,0.0321,0.0325,0.0338,0.035,0.0348,0.0353,0.0347,0.0341,0.0309,0.028,0.0236,0.0146,0.0077,0.0043,-0.0003,-0.0036,-0.0055,-0.0099,-0.0127,-0.0104,-0.0119,-0.0122,-0.0104,-0.0106,-0.0107,-0.0108,0,0,0.034,0.0359,0.0365,0.039,0.0385,0.0389,0.0417,0.0425,0.0442,0.0367,0.0373,0.0268,0.0198,0.0156,0.0076,0.0023,-0.0,-0.0034,-0.0039,-0.0039,-0.0089,-0.0128,-0.0136,-0.0058,-0.0059,-0.0059,-0.0089,0,0.0381,0.0431,0.0426,0.047,0.0507,0.0487,0.0517,0.051,0.05,0.0495,0.0394,0.0356,0.0252,0.0206,0.0136,0.003,-0.001,0.0014,-0.0117,-0.012,-0.0154,-0.0142,-0.0121,-0.015,-0.0092,-0.0093,-0.0094,0,0.043,0.0457,0.0517,0.0555,0.0573,0.0582,0.0628,0.0643,0.063,0.061,0.0538,0.0475,0.0384,0.0293,0.0125,0.0139,0.0042,-0.0046,-0.005,-0.0119,-0.0167,-0.0171,-0.0159,-0.01,-0.0099,-0.0099,-0.0098,0,0.0483,0.0526,0.0579,0.0593,0.0619,0.0648,0.0659,0.0673,0.0718,0.0684,0.0694,0.0565,0.0508,0.0351,0.0179,0.0152,0.0002,-0.0053,-0.0174,-0.0176,-0.02,-0.0204,-0.0155,-0.0155,-0.0155,-0.0155,-0.0155,0,0.0542,0.0582,0.0603,0.0635,0.0704,0.0698,0.077,0.0768,0.0782,0.0851,0.0748,0.0765,0.0515,0.0414,0.0233,0.0025,0.0046,-0.0157,-0.0194,-0.0169,-0.017,-0.0168,-0.0169,-0.0156,-0.0156,-0.0155,-0.0155,0,0.0597,0.0607,0.0674,0.0714,0.0733,0.0783,0.0853,0.0912,0.0897,0.0985,0.0984,0.0909,0.0768,0.054,0.0299,0.011,-0.0089,-0.0161,-0.0098,-0.0129,-0.0241,-0.0237,-0.0297,-0.0299,-0.0301,-0.0302,-0.0303,0,0.0646,0.0673,0.0744,0.0805,0.0828,0.0895,0.0959,0.0963,0.105,0.1097,0.1163,0.106,0.102,0.0643,0.0286,-0.0033,-0.0072,-0.0222,-0.0286,-0.0229,-0.0259,-0.0253,-0.0248,-0.0267,-0.0267,-0.0268,-0.0268,0,0.0727,0.0734,0.0786,0.0912,0.0992,0.1085,0.1183,0.127,0.1309,0.1377,0.1464,0.1432,0.1074,0.0733,0.0264,0.0044,-0.0182,-0.0245,-0.0203,-0.0243,-0.0206,-0.0234,-0.0228,-0.0273,-0.0273,-0.0273,-0.0272,-0.0272,0.0792,0.0854,0.0922,0.1052,0.1157,0.1304,0.1392,0.1509,0.1641,0.1761,0.1697,0.1628,0.1218,0.0606,0.0213,-0.0213,-0.0205,-0.0353,-0.0349,-0.0344,-0.0345,-0.0315,-0.0399,-0.0399,-0.0399,-0.04,-0.04,0,0.0892,0.096,0.108,0.1259,0.1423,0.1405,0.1573,0.1668,0.1861,0.1907,0.1937,0.1547,0.1143,0.0687,0.0043,-0.0339,-0.0364,-0.0444,-0.0391,-0.0384,-0.0378,-0.038,-0.0443,-0.0444,-0.0445,-0.0446,0,0,0.0954,0.109,0.1167,0.1473,0.1589,0.1729,0.1812,0.1948,0.2005,0.2047,0.197,0.1826,0.1259,0.0801,0.0278,-0.0081,-0.014,-0.0151,-0.008,0.005,0.0061,-0.0297,-0.0288,0,0,0,0,0]}],[{"header":{"parameterUnit":"m.s-1","parameterCategory":2,"la1":30.2991,"la2":30.254,"lo1":-89.0895,"lo2":-89.0444,"dy":0.0017,"dx":0.0017,"nx":28,"ny":28,"refTime":"2025-11-09T09:00:00:Z","depth":"4","parameterNumber":2,"parameterNumberName":"U-component_of_CURRENTS"},"data":[0,0,0,0,0,0,0,0,0,0,0,0,0,0,0,0,0,0,0,0,0,0,0,0,0,0,0,0,0,0,0,0,0,0,0,0,0,0,0,0,0,0,0,0,0,0,0,0,0,0,0,0,0,0,0,0,0,0,0.1497,0.1498,0,0.1567,0.1567,0.1568,0.1641,0.1642,0.1644,0.1645,0.1744,0.1745,0.1746,0,0,0,0,0,0,0,0,0,0,0,0,0,0.1359,0.1361,0.1497,0.1498,0.1499,0.1567,0.1567,0.1568,0.1641,0.1642,0.1644,0.1646,0.1743,0.1745,0.1746,0,0,0,0,0,0,0,0,0,0,0,0,0,0.1419,0.1362,0.1496,0.1547,0.1553,0.1567,0.1567,0.1568,0.164,0.1642,0.1645,0.1647,0.1743,0.1745,0.1747,0.1715,0,0,0.1752,0.1753,0,0,0,0,0,0,0,0,0.1415,0.1423,0.1538,0.1544,0.155,0.1601,0.1555,0.162,0.164,0.1602,0.1645,0.1648,0.17,0.1706,0.1707,0.172,0.1724,0.1753,0.1754,0.1755,0.1755,0,0,0,0,0,0,0,0.1411,0.142,0.152,0.154,0.1547,0.1544,0.1555,0.1567,0.1635,0.1605,0.1612,0.1627,0.1703,0.1705,0.171,0.1725,0.1752,0.1754,0.1755,0.1756,0.1879,0.1881,0,0,0,0,0,0,0.1413,0.1417,0.1518,0.1522,0.1492,0.1545,0.1557,0.1579,0.1634,0.1646,0.1625,0.163,0.1701,0.1708,0.1714,0.1808,0.1755,0.1756,0.1757,0.1877,0.188,0.1882,0,0,0,0,0,0,0.141,0.1422,0.1515,0.1474,0.1487,0.1546,0.1569,0.1579,0.1627,0.165,0.1662,0.1668,0.1703,0.1711,0.1772,0.1808,0.1757,0.1759,0.1875,0.1878,0.1881,0.1915,0,0,0,0,0,0,0.1406,0.142,0.1448,0.1475,0.1489,0.1543,0.1568,0.1579,0.1632,0.164,0.169,0.1698,0.1705,0.177,0.1774,0.181,0.176,0.1872,0.1876,0.188,0.1911,0.1919,0.1926,0,0,0,0,0,0.1401,0.1426,0.1448,0.1462,0.1521,0.1544,0.155,0.1596,0.1632,0.1648,0.17,0.1699,0.1799,0.1773,0.1778,0.1815,0.187,0.1875,0.1879,0.1908,0.1917,0.1925,0,0,0,0,0,0,0.1394,0.1437,0.1462,0.1505,0.1533,0.1559,0.1586,0.1616,0.1666,0.1691,0.1717,0.1729,0.1797,0.1803,0.1774,0.1865,0.1837,0.1843,0.1857,0.1866,0.1873,0.1852,0.1762,0,0,0,0,0,0.1401,0.1429,0.1466,0.1504,0.1521,0.156,0.1583,0.1612,0.1654,0.168,0.1717,0.1766,0.181,0.1839,0.1867,0.1909,0.1928,0.1941,0.1949,0.1954,0.1944,0.2013,0.2025,0.1897,0.1897,0.1897,0,0,0.1409,0.144,0.1458,0.1504,0.1533,0.1561,0.1579,0.1622,0.1658,0.1681,0.1753,0.1789,0.1828,0.1882,0.1914,0.1899,0.2007,0.1961,0.1965,0.1951,0.2019,0.2031,0.2042,0.1901,0.19,0.19,0,0,0.1419,0.1469,0.1485,0.1512,0.1559,0.1583,0.1606,0.165,0.1686,0.1744,0.1783,0.1843,0.1902,0.1935,0.196,0.2024,0.2041,0.2048,0.2066,0.2134,0.2145,0.2154,0.2212,0.2226,0.2052,0.2052,0.2052,0,0.1428,0.1465,0.1494,0.1517,0.1553,0.1601,0.1631,0.1665,0.1728,0.1764,0.1779,0.1895,0.1923,0.1999,0.2022,0.2038,0.2079,0.2027,0.2142,0.2151,0.216,0.2217,0.2232,0.2054,0.2054,0.2054,0.2054,0,0.1435,0.1483,0.1499,0.1549,0.1584,0.1622,0.1671,0.1714,0.1772,0.1813,0.1904,0.1944,0.2019,0.2039,0.2047,0.2132,0.2144,0.2141,0.2113,0.2175,0.2231,0.2246,0.2058,0.2057,0.2056,0.2056,0,0,0.141,0.1487,0.1498,0.1535,0.1611,0.1636,0.1701,0.1768,0.1832,0.1888,0.1969,0.2033,0.2072,0.2103,0.2133,0.2174,0.2274,0.2185,0.2188,0.2229,0.2433,0.23,0.2304,0.2302,0.2305,0.2307,0.2453,0,0.1413,0.1463,0.1505,0.1574,0.161,0.1677,0.174,0.1809,0.1879,0.1964,0.2019,0.2113,0.2097,0.2156,0.2194,0.2258,0.2314,0.2234,0.2377,0.2381,0.2244,0.2316,0.2314,0.2464,0.2467,0.247,0.2472,0,0.1399,0.1444,0.1502,0.1605,0.1629,0.1688,0.1803,0.1862,0.198,0.2037,0.2123,0.2183,0.227,0.2249,0.2373,0.2332,0.2387,0.2417,0.2425,0.229,0.2274,0.2388,0.2499,0.2497,0.2495,0.2493,0.2491,0,0.1347,0.1445,0.1497,0.153,0.1643,0.1701,0.1783,0.19,0.1961,0.2106,0.2184,0.2279,0.2369,0.2427,0.25,0.246,0.2629,0.259,0.2521,0.2513,0.2572,0.2561,0.2686,0.2686,0.2685,0.2685,0.2685,0,0.1317,0.1365,0.1493,0.1512,0.1602,0.1705,0.1799,0.1892,0.2032,0.2115,0.224,0.2322,0.2423,0.2527,0.2552,0.2586,0.2691,0.2528,0.2542,0.2587,0.2575,0.2584,0.257,0.2691,0.2689,0.2688,0.2687,0,0.1229,0.1316,0.1373,0.1511,0.157,0.1635,0.1797,0.1856,0.203,0.2146,0.2209,0.2394,0.2527,0.2619,0.2737,0.2664,0.2704,0.2702,0.2767,0.2782,0.2524,0.2511,0.2606,0.2603,0.26,0.2597,0.2595,0,0.1173,0.1199,0.1336,0.1376,0.1445,0.1562,0.1633,0.1822,0.1891,0.2163,0.2212,0.2429,0.2526,0.2599,0.2691,0.2752,0.2724,0.2721,0.2571,0.2512,0.2518,0.2509,0.25,0.259,0.259,0.2589,0.2588,0,0.1055,0.1118,0.116,0.1247,0.1336,0.1405,0.1546,0.1604,0.1825,0.2002,0.2168,0.2274,0.2435,0.2514,0.2608,0.2633,0.2689,0.2689,0.2693,0.2551,0.2495,0.25,0.2495,0.2578,0.2579,0.258,0.2581,0,0.0958,0.0961,0.103,0.1101,0.1186,0.1244,0.134,0.1471,0.159,0.1923,0.1968,0.222,0.2403,0.246,0.2534,0.256,0.2498,0.2383,0.2402,0.2414,0.2281,0.2177,0.2181,0,0,0,0,0,0.0857,0.0854,0.0884,0.0951,0.102,0.1093,0.1267,0.1376,0.1627,0.1691,0.1833,0.1979,0.2132,0.226,0.2248,0.243,0.2488,0.2401,0.2358,0.2521,0.2533,0.2392,0,0,0,0,0,0,0.0788,0.0809,0.0828,0.0804,0.083,0.091,0.1029,0.1207,0.1269,0.1535,0.1637,0.1827,0.2007,0.2107,0.2194,0.2231,0.2158,0.2553,0.2548,0.2514,0.2525,0.2534,0.2394,0,0,0,0,0]},{"header":{"parameterUnit":"m.s-1","parameterCategory":2,"la1":30.2991,"la2":30.254,"lo1":-89.0895,"lo2":-89.0444,"dy":0.0017,"dx":0.0017,"nx":28,"ny":28,"refTime":"2025-11-09T09:00:00:Z","depth":"4","parameterNumber":3,"parameterNumberName":"V-component_of_CURRENTS"},"data":[0,0,0,0,0,0,0,0,0,0,0,0,0,0,0,0,0,0,0,0,0,0,0,0,0,0,0,0,0,0,0,0,0,0,0,0,0,0,0,0,0,0,0,0,0,0,0,0,0,0,0,0,0,0,0,0,0,0,0.0343,0.0342,0,0.0301,0.0301,0.03,0.0269,0.0269,0.0269,0.0269,0.0169,0.0167,0.0165,0,0,0,0,0,0,0,0,0,0,0,0,0,0.0386,0.0385,0.0343,0.0342,0.0342,0.0301,0.0301,0.03,0.0269,0.0269,0.0269,0.0269,0.017,0.0167,0.0164,0,0,0,0,0,0,0,0,0,0,0,0,0,0.0358,0.0385,0.0343,0.0322,0.032,0.0302,0.0301,0.03,0.0269,0.0269,0.0269,0.0268,0.0171,0.0167,0.0164,0.0149,0,0,0.0153,0.0151,0,0,0,0,0,0,0,0,0.036,0.0356,0.0326,0.0323,0.0321,0.0291,0.028,0.0247,0.027,0.0288,0.0269,0.0268,0.0205,0.0199,0.0192,0.0144,0.014,0.0152,0.015,0.0149,0.0148,0,0,0,0,0,0,0,0.0362,0.0358,0.0326,0.0325,0.0322,0.0311,0.0307,0.0273,0.0248,0.0286,0.0284,0.028,0.0203,0.0195,0.0189,0.0138,0.0153,0.0149,0.0147,0.0146,0.0072,0.0072,0,0,0,0,0,0,0.0368,0.036,0.0327,0.0325,0.034,0.0311,0.0306,0.03,0.0249,0.0242,0.0281,0.0279,0.0202,0.0193,0.0185,0.0188,0.0149,0.0145,0.0143,0.0072,0.0072,0.0072,0,0,0,0,0,0,0.0369,0.0366,0.0329,0.0342,0.0336,0.0311,0.0304,0.03,0.0299,0.0246,0.0237,0.0285,0.0201,0.019,0.0159,0.0183,0.0144,0.014,0.0071,0.0072,0.0072,0.0178,0,0,0,0,0,0,0.0371,0.0366,0.0368,0.0342,0.0336,0.0332,0.0305,0.0299,0.0296,0.0294,0.0246,0.0236,0.02,0.0165,0.0155,0.0177,0.0138,0.0071,0.0072,0.0072,0.0175,0.0182,0.0189,0,0,0,0,0,0.0372,0.0377,0.0368,0.0365,0.0338,0.0333,0.0329,0.0309,0.0297,0.0305,0.0265,0.0238,0.0161,0.0162,0.0151,0.0173,0.0071,0.0071,0.0072,0.0171,0.0181,0.0189,0,0,0,0,0,0,0.0389,0.0374,0.0364,0.0361,0.0354,0.0328,0.0337,0.0318,0.0294,0.0289,0.0239,0.0226,0.0206,0.017,0.0173,0.015,0.0112,0.0111,0.0192,0.02,0.0207,0.0231,0.0135,0,0,0,0,0,0.0396,0.0397,0.0381,0.0378,0.0386,0.0364,0.036,0.0343,0.0317,0.0307,0.0274,0.0233,0.0199,0.0185,0.0146,0.0136,0.0081,0.0141,0.0148,0.0155,0.0165,0.0095,0.0097,0.0074,0.0074,0.0074,0,0,0.04,0.0391,0.039,0.0383,0.0382,0.0396,0.0362,0.0362,0.0367,0.0298,0.03,0.0254,0.0198,0.0186,0.0175,0.0161,0.0131,0.0155,0.0162,0.0168,0.0096,0.0098,0.01,0.0074,0.0074,0.0074,0,0,0.0419,0.041,0.0428,0.0432,0.0432,0.0419,0.0425,0.0409,0.0403,0.0391,0.0341,0.0312,0.0268,0.0236,0.0213,0.0234,0.0166,0.0221,0.0286,0.0219,0.022,0.0221,0.0154,0.0148,0.0232,0.0233,0.0233,0,0.0426,0.0441,0.0432,0.0458,0.0466,0.0438,0.0463,0.0456,0.0425,0.0421,0.0405,0.0335,0.0295,0.0272,0.0286,0.0254,0.0199,0.0264,0.0229,0.0229,0.0228,0.0159,0.0151,0.0238,0.0237,0.0237,0.0236,0,0.0469,0.0481,0.0499,0.0521,0.0529,0.0544,0.0538,0.054,0.0527,0.0508,0.0486,0.0428,0.0387,0.0375,0.0342,0.0321,0.0277,0.0243,0.0214,0.0237,0.0163,0.0153,0.0245,0.0243,0.0242,0.024,0,0,0.0483,0.0521,0.0529,0.0552,0.0564,0.0574,0.0595,0.0602,0.0613,0.0584,0.0585,0.0543,0.0505,0.0475,0.0424,0.0382,0.0335,0.0324,0.0318,0.027,0.0179,0.015,0.0135,0.029,0.0289,0.0288,0.013,0,0.0522,0.0579,0.0584,0.0633,0.0665,0.0657,0.0679,0.0676,0.0664,0.0657,0.0605,0.0581,0.0545,0.0524,0.0477,0.036,0.0312,0.038,0.0153,0.0147,0.0128,0.0124,0.0284,0.0122,0.012,0.0118,0.0117,0,0.0571,0.0598,0.0658,0.0693,0.0709,0.0733,0.076,0.0774,0.0757,0.0743,0.0712,0.0659,0.0601,0.0561,0.0394,0.0435,0.0325,0.0238,0.0229,0.016,0.0099,0.0091,0.0097,0.0099,0.01,0.0102,0.0103,0,0.0598,0.065,0.0698,0.0714,0.0751,0.0778,0.0798,0.0803,0.0825,0.0796,0.0792,0.0705,0.0654,0.0517,0.0355,0.0364,0.0154,0.0133,0.0002,-0.0002,0.0025,0.0026,0.0013,0.0013,0.0014,0.0014,0.0014,0,0.0635,0.0675,0.0719,0.0747,0.0807,0.0818,0.0878,0.088,0.0885,0.0908,0.084,0.0814,0.064,0.0507,0.0357,0.0146,0.0144,0.0012,-0.0044,0.0072,0.008,0.0017,0.002,0.0008,0.0009,0.001,0.0011,0,0.066,0.0688,0.075,0.0803,0.0826,0.0874,0.0945,0.0983,0.0973,0.0995,0.0989,0.0879,0.0697,0.051,0.0263,0.0145,-0.0052,-0.0128,0.001,-0.0036,-0.0163,-0.0154,-0.0288,-0.029,-0.0292,-0.0294,-0.0295,0,0.0676,0.071,0.0799,0.0846,0.0878,0.095,0.1007,0.103,0.1072,0.1033,0.1042,0.088,0.0783,0.0419,0.021,-0.0098,-0.0133,-0.0233,-0.0184,-0.0153,-0.0194,-0.0181,-0.0169,-0.0298,-0.0299,-0.0299,-0.03,0,0.0699,0.074,0.0792,0.0894,0.0968,0.1053,0.1129,0.1158,0.1177,0.1168,0.1075,0.0892,0.0674,0.0406,0.0159,-0.0054,-0.0164,-0.0254,-0.0251,-0.0206,-0.0168,-0.0203,-0.0189,-0.0306,-0.0305,-0.0305,-0.0304,0,0.0718,0.0764,0.0842,0.0928,0.1028,0.1116,0.116,0.1191,0.1215,0.1172,0.1129,0.0898,0.0764,0.0424,0.02,-0.0018,-0.0065,-0.0114,-0.0119,-0.0114,-0.0012,0.0065,-0.005,0,0,0,0,0,0.0727,0.0779,0.0867,0.0963,0.1067,0.1131,0.1222,0.1255,0.1269,0.1215,0.1174,0.0972,0.0617,0.0462,0.0237,0.0158,-0.0106,-0.0112,-0.0163,-0.0344,-0.0336,-0.0248,0,0,0,0,0,0,0.073,0.0812,0.086,0.0973,0.105,0.1167,0.1234,0.1251,0.1222,0.1196,0.1012,0.0919,0.0577,0.0743,0.0232,0.0164,0.0102,-0.0276,-0.0281,-0.0348,-0.0341,-0.0335,-0.0241,0,0,0,0,0]}]]